P/2001 T3 ( NEAT )

Japanese version
Home page
Updated on February 26, 2002

---------------------------------------------------------------------

* Profile

Discovery Date October 14, 2001
Magnitude 18.4 mag
Discoverer Near-Earth-Asteroid Tracking Team (Jet Propulsion Laboratory)

* Orbital Elements

Epoch 2002 Feb. 15.0 TT = JDT 2452320.5
T 2002 Feb. 1.11046 TT                                  MPC
q   2.5057742            (2000.0)            P               Q
n   0.05934201     Peri.  356.23878     +0.60187879     -0.74998625
a   6.5097038      Node    56.53796     +0.74100308     +0.39640488
e   0.6150709      Incl.   19.19875     +0.29775217     +0.52951279
P  16.61

* Finding Charts

* Magnitudes Graph

        m1 = 3.5 + 5 log d + 30.0 log r

---------------------------------------------------------------------

The orbital elements are calculated by Dr. Brian G. Marsden and printed on M.P.E.C. 2002-A88.
The charts are made with StellaNavigator Ver.2.0 for Windows (AstroArts / ASCII).
The magnitudes graphs are made with Comet for Windows.

---------------------------------------------------------------------

Copyright(C) Seiichi Yoshida (comet@aerith.net). All rights reserved.